Flag Weather past 2 weeks in Calgary, Alberta, Canada

Now
-6 °F

Frigid.


Feels Like: -32 °F
Forecast: -12 / 0 °F
Wind: 25 mph from North

Location: Calgary International

Current Time: Nov 28, 2014 at 2:12:03 PM

Latest Report: Nov 28, 2014 at 1:00 PM


Visibility: 1 mi

Pressure: 29.92 "Hg

Humidity: 70%

Dew point: -13 °F

Location of CalgaryLocation

Historic Weather in Calgary — Graph

°F

Calgary temperature yesterday

Maximum temperature yesterday: 27 °F (at 12:00 AM)
Minimum temperature yesterday: 7 °F (at 10:00 PM)
Average temperature yesterday: 20 °F

Past Weeks' High & Low Weather Summary

 TemperatureHumidityPressure
High48 °F (Nov 20, 2:00 PM)100% (Nov 26, 10:00 AM)30.58 "Hg (Nov 26, 10:00 AM)
Low-6 °F (Nov 28, 1:00 PM)34% (Nov 15, 7:00 PM)29.10 "Hg (Nov 22, 7:00 AM)
Average24 °F71%30.07 "Hg
* Reported Nov 13 1:00 PM — Nov 28 1:00 PM, Calgary, Weather by CustomWeather, © 2014

Note: Actual official high and low records may vary slightly from our data, if they occured in-between our weather recording intervals... More about our weather records

Advertising

Calgary weather history for previous 24 hours

 ConditionsComfort  
Time TempWeatherWind HumidityBarometerVisibility
1:00 PM
Nov 28
-6 °FFrigid.25 mph70%29.92 "Hg1 mi
12:00 PM-4 °FFrigid.25 mph71%29.92 "Hg1 mi
11:00 AM-4 °FFrigid.28 mph71%29.91 "Hg1 mi
10:00 AM-4 °FFrigid.22 mph71%29.89 "Hg1 mi
9:00 AM-4 °FLight snow. Overcast.24 mph71%29.88 "Hg4 mi
8:00 AM-4 °FMostly cloudy.23 mph77%29.86 "Hg2 mi
7:00 AM-2 °FSnow flurries. Overcast.23 mph71%29.85 "Hg2 mi
6:00 AM-2 °FIce fog.18 mph77%29.83 "Hg2 mi
5:00 AM0 °FIce fog.18 mph78%29.83 "Hg5 mi
4:00 AM0 °FIce fog.20 mph78%29.85 "Hg5 mi
3:00 AM1 °FIce fog.15 mph85%29.85 "Hg3 mi
2:00 AM3 °FLight snow. Ice fog.16 mph85%29.83 "Hg2 mi
1:00 AM5 °FLight snow. Overcast.15 mph78%29.83 "Hg2 mi
12:00 AM5 °FLight snow. Overcast.15 mph85%29.84 "Hg2 mi
11:00 PM
Nov 27
7 °FLight snow. Overcast.13 mph78%29.86 "Hg3 mi
10:00 PM7 °FLight snow. Overcast.15 mph85%29.87 "Hg2 mi
9:00 PM9 °FLight snow. Mostly cloudy.14 mph78%29.88 "Hg2 mi
8:00 PM10 °FOvercast.13 mph85%29.89 "Hg2 mi
7:00 PM10 °FLight snow. Overcast.13 mph85%29.93 "Hg1 mi
6:00 PM12 °FLight snow. Overcast.15 mph85%29.93 "Hg1 mi
5:00 PM14 °FLight snow. Overcast.14 mph85%29.94 "Hg2 mi
4:00 PM14 °FLight snow. Ice fog.16 mph85%29.94 "Hg1 mi
3:00 PM16 °FCold.16 mph86%29.93 "Hg1 mi
2:00 PM21 °FLight snow. Ice fog.16 mph93%29.91 "Hg1 mi
Weather by CustomWeather, © 2014

See weather overviewHow to use our weather pages